Location: Carter Cabin
(41.0271°N, 122.9339°W)
Time: 13:53:43
(UTC+00:00)

SL-16 R/B - Pass Details

Date: 13 April 2024
Orbit: 839 x 849 km, 71.0° (Epoch: 21 May)

Event Time Altitude Azimuth Distance (km) Brightness Sun altitude
Exits shadow 12:40:42 - 208° (SSW) 2,876 4.5 -10.5°
Reaches altitude 10° 12:41:49 10° 209° (SSW) 2,447 4.2 -10.3°
Maximum altitude 12:47:26 75° 294° (WNW) 873 2.2 -9.3°
Drops below altitude 10° 12:53:06 10° 20° (NNE) 2,468 5.2 -8.3°
Sets 12:55:34 0° 23° (NNE) 3,408 6.0 -7.9°
